Regional Weather Roundup
Issued by NWS

Home | Current Version | Previous Version | Text Only | Print | Product List | Glossary Off
Versions: 1 2 3 4 5 6 7 8 9 10 11 12 13 14 15 16 17 18 19 20 21 22 23 24 25 26 27 28 29 30 31 32 33 34 35 36 37 38 39 40 41 42 43 44 45 46 47 48 49 50

000
ASUS43 KMKX 301421
RWRWI

WISCONSIN REGIONAL WEATHER ROUNDUP
NATIONAL WEATHER SERVICE MILWAUKEE/SULLIVAN WI
900 AM CDT TUE AUG 30 2016

NOTE: "FAIR" INDICATES FEW OR NO CLOUDS BELOW 12,000 FEET WITH NO
SIGNIFICANT WEATHER AND/OR OBSTRUCTIONS TO VISIBILITY.

WIZ001-002-006>008-014>016-023>028-301500-
NORTHWEST WISCONSIN

CITY           SKY/WX    TMP DP  RH WIND       PRES   REMARKS
SUPERIOR ARPT  MOSUNNY   67  60  76 CALM      30.18R
ASHLAND        CLOUDY    68  62  81 N6        30.16R
HAYWARD        CLOUDY    66  63  90 N7        30.17R
SIREN          CLOUDY    64  63  95 N5        30.18R
CUMBERLAND     CLOUDY    64  63  94 N7        30.17R
RICE LAKE      CLOUDY    67  63  88 N5        30.18S
CHETEK         NOT AVBL
LADYSMITH      CLOUDY    68  65  90 CALM      30.18S
EAU CLAIRE     MOSUNNY   70  63  78 CALM      30.16S
MENOMONIE      CLOUDY    70  64  81 CALM      30.18S
NEW RICHMOND   CLOUDY    67  66  96 N5        30.17S
OSCEOLA        CLOUDY    67  67 100 NW5       30.20R
$$

WIZ003>005-009-010-017-018-301500-
NORTH CENTRAL WISCONSIN

CITY           SKY/WX    TMP DP  RH WIND       PRES   REMARKS
MANITOWISH WTR NOT AVBL
ARBOR VITAE    CLOUDY    67  64  89 W3        30.16S
WOODRUFF       CLOUDY    67  64  89 W3        30.16S
RHINELANDER    CLOUDY    70  65  84 W7        30.17R
EAGLE RIVER    CLOUDY    67  66  96 NW3       30.15S
LAND O LAKES   CLOUDY    66  64  93 NW3       30.16S
PHILLIPS       CLOUDY    67  65  94 N6        30.16S FOG
TOMAHAWK       CLOUDY    68  63  84 W5        30.16F
MEDFORD        MOSUNNY   69  65  85 W3        30.17S
MERRILL        CLOUDY    70  64  81 W5        30.16S
$$

WIZ029-030-035-036-043>047-301500-
CENTRAL WISCONSIN

CITY           SKY/WX    TMP DP  RH WIND       PRES   REMARKS
WAUSAU         CLOUDY    69  63  81 NW6       30.14S
MOSINEE        SUNNY     70  66  88 VRB5      30.17S
MARSHFIELD     CLOUDY    73  61  65 N5        30.16S
STEVENS POINT  CLOUDY    70  64  80 NW5       30.16S
WAUPACA        PTSUNNY   75  70  85 SW5       30.13F
WAUTOMA        MOSUNNY   72  69  90 N5        30.15R
WISC RAPIDS    PTSUNNY   71  66  84 NW5       30.17S
CAMP DOUGLAS   MOSUNNY   72  70  94 N5        30.15R
$$

WIZ011>013-019>022-031-037>040-048>050-301500-
NORTHEAST WISCONSIN

CITY           SKY/WX    TMP DP  RH WIND       PRES   REMARKS
ANTIGO         MOSUNNY   71  65  81 CALM      30.16F
SHAWANO        PTSUNNY   72  70  92 N3        30.13S
OCONTO         NOT AVBL
STURGEON BAY   RAIN      71  69  93 W7        30.12S
GREEN BAY      MOSUNNY   73  72  96 S5        30.10F
MANITOWOC      SUNNY     77  71  82 W8        30.12S
APPLETON       PTSUNNY   72  70  94 W5        30.12S
CLINTONVILLE   PTSUNNY   73  66  78 W7        30.12S
OSHKOSH        CLOUDY    74  70  87 W6        30.12F
$$

WIZ032>034-041-042-053>061-301500-
SOUTHWEST WISCONSIN

CITY           SKY/WX    TMP DP  RH WIND       PRES   REMARKS
LA CROSSE      MOSUNNY   76  69  79 VRB3      30.14S
SPARTA         CLOUDY    69  65  88 N3        30.16F
VIROQUA        CLOUDY    71  71 100 N6        30.17R
BOSCOBEL       CLOUDY    75  72  90 W3        30.13S
PRAIRIE DU CHI CLOUDY    73  71  95 CALM      30.13R
PLATTEVILLE    CLOUDY    73  73 100 S6        30.15F
$$

WIZ056-057-062-063-064-067-068-301500-
SOUTH CENTRAL WISCONSIN

CITY           SKY/WX    TMP DP  RH WIND       PRES   REMARKS
REEDSBURG      NOT AVBL
BARABOO/DELLS  SUNNY     74  71  88 CALM      30.13S
LONE ROCK      CLOUDY    73  72  96 CALM      30.13F FOG
MINERAL POINT  FOG       72  72 100 S3        30.16F VSB 1/4
MADISON        PTSUNNY   74  70  87 S9        30.13S
MIDDLETON      CLOUDY    74  74 100 SW7       30.14F
WATERTOWN      CLOUDY    73  73  98 SW3       30.13F
MONROE         CLOUDY    70  68  94 SW5       30.15F FOG
JANESVILLE     CLOUDY    72  72 100 SW6       30.15S
$$

WIZ051-052-058>065-066-070>072-301500-
SOUTHEAST WISCONSIN

CITY           SKY/WX    TMP DP  RH WIND       PRES   REMARKS
MILWAUKEE      PTSUNNY   77  69  76 SW7       30.13F
WAUKESHA       SUNNY     72  68  88 CALM      30.15F
MILWAUKEE/TIMM SUNNY     75  66  73 W8        30.14F
RACINE         PTSUNNY   77  68  73 SW6       30.15F
BURLINGTON     CLOUDY    75  70  84 W5        30.14S
KENOSHA        CLOUDY    76  71  85 S6        30.14F
FOND DU LAC    CLOUDY    74  71  91 W6        30.13S
SHEBOYGAN      PTSUNNY   76  70  82 W5        30.12S
WEST BEND      MOSUNNY   73  70  88 W5        30.13F
JUNEAU         CLOUDY    72  70  93 SW5       30.15S
$$

LSZ147-162-301500-
LAKE SUPERIOR

STATION/POSITION TIME  TEMP    WIND        PRES    WAVE
                       AIR SEA DIR/SP/G            HT/PER
                 (UTC) (F)     (DEG/KT/KT) (MB)    (FT/S)
W MID LAKE BUOY  1350   67 67  340/ 10/ 12 1019.8R   1/ 4
DEVILS ISLAND    1400   65     340/ 12/ 13 1021.0R
PORT WING        1220   68     340/  8/  9 1021.0R
SAXON HARBOR     1300   69     360/  7/  9 1020.7R
$$

LMZ867-665-643>646-301500-
LAKE MICHIGAN

STATION/POSITION TIME  TEMP    WIND        PRES    WAVE
                       AIR SEA DIR/SP/G            HT/PER
                 (UTC) (F)     (DEG/KT/KT) (MB)    (FT/S)
CHAMBERS ISLAND  1300   71     200/  5/  9 1019.3R
S GREEN BAY BUOY 1130   72 72  200/ 12/ 14 1018.6
N MID LAKE BUOY  1350   71 71  240/  8/  8 1018.2F   1/ 4
NORTHPORT PIER   1300   74     280/  4/  7 1019.0F
SISTER BAY       1337   76     290/ 11/ 12   N/A
KEWAUNEE LAKESHO 1300   71     280/  3/  6 1019.1F
SHEBOYGAN LAKESH 1400   71     190/  3/  3 1019.4R
PORT WASHINGTON  1340   76     260/  4/  5 1020.7F
ATWATER BUOY     1400   70     160/  2/  2   N/A
MILWAUKEE LAKESH 1310   74     240/  3/  5   N/A
S MID LAKE BUOY  1350   74 76  170/ 16/ 19 1019.8F   1/ 3
KENOSHA   LAKESH 1400   75      CALM  /  4 1020.3F
$$

TC  - TEMPERATURE IN CELSIUS
VSB - VISIBILITY IN STATUTE MILES
WCI - WIND CHILL INDEX
HX  - HEAT INDEX





USA.gov is the U.S. government's official web portal to all federal, state and local government web resources and services.